Location: Chuathbaluk
(61.5726°N, 159.2454°W)
Time: 14:16:17
(UTC+00:00)

N. Korean satellite - Pass Details

Date: 28 October 2020
Orbit: 453 x 503 km, 97.2° (Epoch: 03 December)

Event Time Altitude Azimuth Distance (km) Brightness Sun altitude
Rises 15:52:44 0° 20° (NNE) 2,498 10.4 -15.1°
Reaches altitude 10° 15:54:55 10° 29° (NNE) 1,613 9.6 -14.8°
Maximum altitude 15:58:07 34° 97° (E) 769 8.3 -14.5°
Drops below altitude 10° 16:01:16 10° 165° (SSE) 1,594 9.4 -14.1°
Sets 16:03:25 0° 174° (S) 2,463 10.3 -13.8°
